QPF
0.00 0.00 0.00 0.00 0.00 0.00 0.00 0.00 0.00 0.00 0.00 0.00 0.00 0.00 0.00 0.00 0.00 0.00 0.01 0.00 0.00 0.00 0.00 0.00 0.00 0.00 0.00 0.00 0.00 0.00 0.00 0.00 0.00 0.00 0.00 0.00 0.00 0.00 0.00 0.00 0.00 0.00 0.00 0.01 0.00 0.00 0.00 0.00 0.00
0.00 0.00 0.00 0.00 0.00 0.00 0.00 0.00 0.00 0.00 0.00 0.00 0.00 0.00 0.00 0.00 0.00 0.02 0.00 0.00 0.00 0.00 0.00 0.00 0.00 0.00 0.00 0.00 0.00 0.00 0.00 0.00 0.00 0.00 0.00 0.00 0.00 0.00 0.00 0.00 0.00 0.00 0.00 0.00 0.00 0.01 0.00 0.00 0.00
0.00 0.00 0.00 0.00 0.00 0.00 0.00 0.00 0.00 0.00 0.00 0.00 0.00 0.00 0.00 0.00 0.00 0.00 0.00 0.00 0.00 0.00 0.00 0.00 0.00 0.00 0.00 0.00 0.00 0.00 0.00 0.00 0.00 0.00 0.00 0.00 0.00 0.00 0.00 0.00 0.00 0.00 0.00 0.00 0.00 0.00 0.00 0.00 0.00
0.00 0.00 0.00 0.00 0.00 0.00 0.00 0.00 0.00 0.00 0.00 0.00 0.00 0.00 0.00 0.00 0.00 0.00 0.00 0.00 0.00 0.00 0.00 0.00 0.00 0.00 0.00 0.00 0.00 0.00 0.00 0.00 0.00 0.00 0.00 0.00 0.00 0.00 0.00 0.00 0.00 0.00 0.01 0.01 0.01 0.01 0.01 0.01 0.00
0.00 0.00 0.00 0.00 0.00 0.00 0.00 0.00 0.00 0.00 0.00 0.00 0.00 0.00 0.00 0.00 0.00 0.00 0.00 0.00 0.00 0.00 0.00 0.00 0.00 0.00 0.00 0.00 0.00 0.00 0.00 0.00 0.00 0.00 0.00 0.00 0.00 0.00 0.00 0.00 0.00 0.00 0.00 0.00 0.00 0.00 0.00 0.00 0.00
0.00 0.00 0.00 0.00 0.00 0.00 0.00 0.00 0.00 0.00 0.00 0.00 0.00 0.00 0.00 0.00 0.00 0.00 0.00 0.00 0.00 0.00 0.00 0.00 0.00 0.00 0.00 0.00 0.00 0.00 0.00 0.00 0.00 0.00 0.00 0.00 0.00 0.00 0.00 0.00 0.00 0.00 0.00 0.00 0.00 0.00 0.00 0.00 0.00
0.00 0.00 0.00 0.00 0.00 0.00 0.00 0.00 0.00 0.00 0.00 0.00 0.00 0.00 0.00 0.00 0.00 0.00 0.00 0.00 0.00 0.00 0.00 0.00 0.00 0.00 0.00 0.00 0.00 0.00 0.00 0.00 0.00 0.00 0.00 0.00 0.00 0.00 0.00 0.00 0.00 0.00 0.00 0.00 0.00 0.00 0.00 0.00 0.00
0.00 0.00 0.00 0.00 0.00 0.00 0.00 0.00 0.00 0.00 0.00 0.00 0.00 0.00 0.00 0.00 0.00 0.00 0.00 0.00 0.00 0.00 0.00 0.00 0.00 0.00 0.00 0.00 0.00 0.00 0.00 0.00 0.00 0.00 0.00 0.00 0.00 0.00 0.00 0.00 0.00 0.00 0.00 0.00 0.00 0.00 0.00 0.00 0.00
0.00 0.00 0.00 0.00 0.00 0.00 0.00 0.00 0.00 0.00 0.00 0.00 0.00 0.00 0.00 0.00 0.00 0.00 0.00 0.00 0.00 0.00 0.00 0.00 0.00 0.00 0.00 0.00 0.00 0.00 0.00 0.00 0.00 0.00 0.00 0.00 0.00 0.00 0.00 0.00 0.00 0.00 0.00 0.00 0.00 0.00 0.00 0.00 0.00
0.00 0.00 0.00 0.00 0.00 0.00 0.00 0.00 0.00 0.00 0.00 0.00 0.00 0.00 0.00 0.00 0.00 0.00 0.00 0.00 0.00 0.00 0.00 0.00 0.00 0.00 0.00 0.00 0.00 0.00 0.00 0.00 0.00 0.00 0.00 0.00 0.00 0.00 0.00 0.00 0.00 0.00 0.00 0.00 0.00 0.00 0.00 0.00 0.00
0.00 0.00 0.00 0.00 0.00 0.00 0.00 0.00 0.00 0.00 0.00 0.00 0.00 0.00 0.00 0.00 0.00 0.00 0.00 0.00 0.00 0.00 0.00 0.00 0.00 0.00 0.00 0.00 0.00 0.00 0.00 0.00 0.00 0.00 0.00 0.00 0.00 0.00 0.00 0.00 0.00 0.00 0.00 0.00 0.00 0.00 0.00 0.00 0.00
0.00 0.00 0.00 0.00 0.00 0.00 0.00 0.00 0.00 0.00 0.00 0.00 0.00 0.00 0.00 0.00 0.00 0.00 0.00 0.00 0.00 0.00 0.00 0.00 0.00 0.00 0.00 0.00 0.00 0.00 0.00 0.00 0.00 0.00 0.00 0.00 0.00 0.00 0.00 0.00 0.00 0.00 0.00 0.00 0.00 0.00 0.00 0.00 0.00
0.00 0.00 0.00 0.00 0.00 0.00 0.00 0.00 0.00 0.00 0.00 0.00 0.00 0.00 0.00 0.00 0.00 0.00 0.00 0.00 0.00 0.00 0.00 0.00 0.00 0.00 0.00 0.00 0.00 0.00 0.00 0.00 0.00 0.00 0.00 0.00 0.00 0.00 0.00 0.00 0.00 0.00 0.00 0.00 0.00 0.00 0.00 0.00 0.00
0.00 0.00 0.00 0.00 0.00 0.00 0.00 0.00 0.00 0.00 0.00 0.00 0.00 0.00 0.00 0.00 0.00 0.00 0.00 0.00 0.00 0.00 0.00 0.00 0.00 0.00 0.00 0.00 0.00 0.00 0.00 0.00 0.00 0.00 0.00 0.00 0.00 0.00 0.00 0.00 0.00 0.00 0.00 0.00 0.00 0.00 0.00 0.00 0.00
0.00 0.00 0.00 0.00 0.00 0.00 0.00 0.00 0.00 0.00 0.00 0.00 0.00 0.00 0.00 0.00 0.00 0.00 0.00 0.00 0.00 0.00 0.00 0.00 0.00 0.00 0.00 0.00 0.00 0.00 0.00 0.00 0.00 0.00 0.00 0.00 0.00 0.00 0.00 0.00 0.00 0.00 0.00 0.00 0.00 0.00 0.00 0.00 0.00
0.00 0.00 0.00 0.00 0.00 0.00 0.00 0.00 0.00 0.00 0.00 0.00 0.00 0.00 0.00 0.00 0.00 0.00 0.00 0.00 0.00 0.00 0.00 0.00 0.00 0.00 0.00 0.00 0.00 0.00 0.00 0.00 0.00 0.00 0.00 0.00 0.00 0.00 0.00 0.00 0.00 0.00 0.00 0.00 0.00 0.00 0.00 0.00 0.00
0.00 0.00 0.00 0.00 0.00 0.00 0.00 0.00 0.00 0.00 0.00 0.00 0.00 0.00 0.00 0.00 0.00 0.00 0.00 0.00 0.00 0.00 0.00 0.00 0.00 0.00 0.00 0.00 0.00 0.00 0.00 0.00 0.00 0.00 0.00 0.00 0.00 0.00 0.00 0.00 0.00 0.00 0.00 0.00 0.00 0.00 0.00 0.00 0.00
0.00 0.00 0.00 0.00 0.00 0.00 0.00 0.00 0.00 0.00 0.00 0.00 0.00 0.00 0.00 0.00 0.00 0.00 0.00 0.00 0.00 0.00 0.00 0.00 0.00 0.00 0.00 0.00 0.00 0.00 0.00 0.00 0.00 0.00 0.00 0.00 0.00 0.00 0.00 0.00 0.00 0.00 0.00 0.00 0.00 0.00 0.00 0.00 0.00
0.00 0.00 0.00 0.00 0.00 0.00 0.00 0.00 0.00 0.00 0.00 0.00 0.00 0.00 0.00 0.00 0.00 0.00 0.00 0.00 0.00 0.00 0.00 0.00 0.00 0.00 0.00 0.00 0.00 0.00 0.00 0.00 0.00 0.00 0.00 0.00 0.00 0.00 0.00 0.00 0.00 0.00 0.00 0.00 0.00 0.00 0.00 0.00 0.00
0.00 0.00 0.00 0.00 0.00 0.00 0.00 0.00 0.00 0.00 0.00 0.00 0.00 0.00 0.00 0.00 0.00 0.00 0.00 0.00 0.00 0.00 0.00 0.00 0.00 0.00 0.00 0.00 0.00 0.00 0.00 0.00 0.00 0.00 0.00 0.00 0.00 0.00 0.00 0.00 0.00 0.00 0.00 0.00 0.00 0.00 0.00 0.00 0.00
0.00 0.00 0.00 0.00 0.00 0.00 0.00 0.00 0.00 0.00 0.00 0.00 0.00 0.00 0.00 0.00 0.00 0.00 0.00 0.00 0.00 0.00 0.00 0.00 0.00 0.00 0.00 0.00 0.00 0.00 0.00 0.00 0.00 0.00 0.00 0.00 0.00 0.00 0.00 0.00 0.00 0.00 0.00 0.00 0.00 0.00 0.00 0.00 0.00
0.00 0.00 0.00 0.00 0.00 0.00 0.00 0.00 0.00 0.00 0.00 0.00 0.00 0.00 0.00 0.00 0.00 0.00 0.00 0.00 0.00 0.00 0.00 0.00 0.00 0.00 0.00 0.00 0.00 0.00 0.00 0.00 0.00 0.00 0.00 0.00 0.00 0.00 0.00 0.00 0.00 0.00 0.00 0.00 0.00 0.00 0.00 0.00 0.00
0.00 0.00 0.00 0.00 0.00 0.00 0.00 0.00 0.00 0.00 0.00 0.00 0.00 0.00 0.00 0.00 0.00 0.00 0.00 0.00 0.00 0.00 0.00 0.00 0.00 0.00 0.00 0.00 0.00 0.00 0.00 0.00 0.00 0.00 0.00 0.00 0.00 0.00 0.00 0.00 0.00 0.00 0.00 0.00 0.00 0.00 0.00 0.00 0.00
0.00 0.00 0.00 0.00 0.00 0.00 0.00 0.00 0.00 0.00 0.00 0.00 0.00 0.00 0.00 0.00 0.00 0.00 0.00 0.00 0.00 0.00 0.00 0.00 0.00 0.00 0.00 0.00 0.00 0.00 0.00 0.00 0.00 0.00 0.00 0.00 0.00 0.00 0.00 0.00 0.00 0.00 0.00 0.00 0.00 0.00 0.00 0.00 0.00
0.00 0.00 0.00 0.00 0.00 0.00 0.00 0.00 0.00 0.00 0.00 0.00 0.00 0.00 0.00 0.00 0.00 0.00 0.00 0.00 0.00 0.00 0.00 0.00 0.00 0.00 0.00 0.00 0.00 0.00 0.00 0.00 0.00 0.00 0.00 0.00 0.00 0.00 0.00 0.00 0.00 0.00 0.00 0.00 0.00 0.00 0.00 0.00 0.00
0.00 0.00 0.00 0.00 0.00 0.00 0.00 0.00 0.00 0.00 0.00 0.00 0.00 0.00 0.00 0.00 0.00 0.00 0.00 0.00 0.00 0.00 0.00 0.00 0.00 0.00 0.00 0.00 0.00 0.00 0.00 0.00 0.00 0.00 0.00 0.00 0.00 0.00 0.00 0.00 0.00 0.00 0.00 0.00 0.00 0.00 0.00 0.00 0.00
0.00 0.00 0.00 0.00 0.00 0.00 0.00 0.00 0.00 0.00 0.00 0.00 0.00 0.00 0.00 0.00 0.00 0.00 0.00 0.00 0.00 0.00 0.00 0.00 0.00 0.00 0.00 0.00 0.00 0.00 0.00 0.00 0.00 0.00 0.00 0.00 0.00 0.00 0.00 0.00 0.00 0.00 0.00 0.00 0.00 0.00 0.00 0.00 0.00
0.00 0.00 0.00 0.00 0.00 0.00 0.00 0.00 0.00 0.00 0.00 0.00 0.00 0.00 0.00 0.00 0.00 0.00 0.00 0.00 0.00 0.00 0.00 0.00 0.00 0.00 0.00 0.00 0.00 0.00 0.00 0.00 0.00 0.00 0.00 0.00 0.00 0.00 0.00 0.00 0.00 0.00 0.00 0.00 0.00 0.00 0.00 0.00 0.00
0.00 0.00 0.00 0.00 0.00 0.00 0.00 0.00 0.00 0.00 0.00 0.00 0.00 0.00 0.00 0.00 0.00 0.00 0.00 0.00 0.00 0.00 0.00 0.00 0.00 0.00 0.00 0.00 0.00 0.00 0.00 0.00 0.00 0.00 0.00 0.00 0.00 0.00 0.00 0.00 0.00 0.00 0.00 0.00 0.00 0.00 0.00 0.00 0.00
0.00 0.00 0.00 0.00 0.00 0.00 0.00 0.00 0.00 0.00 0.00 0.00 0.00 0.00 0.00 0.00 0.00 0.00 0.00 0.00 0.00 0.00 0.00 0.00 0.00 0.00 0.00 0.00 0.00 0.00 0.00 0.00 0.00 0.00 0.00 0.00 0.00 0.00 0.00 0.00 0.00 0.00 0.00 0.00 0.00 0.00 0.00 0.00 0.00
MSLP
1009.26 1009.26 1009.44 1009.80 1011.33 1011.86 1011.31 1009.81 1008.71 1008.49 1008.51 1008.88 1009.40 1010.16 1011.22 1011.93 1012.00 1012.83 1012.64 1012.95 1013.16 1013.27 1013.40 1013.50 1013.63 1013.76 1013.82 1013.82 1013.81 1013.93 1014.01 1014.18 1014.21 1014.30 1014.41 1014.49 1014.63 1014.55 1014.60 1014.70 1014.74 1014.69 1014.58 1014.45 1014.53 1014.54 1014.57 1014.55 1014.57
1009.02 1009.26 1009.69 1010.59 1011.88 1012.04 1010.74 1009.20 1008.45 1008.07 1008.56 1008.92 1009.89 1010.87 1011.52 1012.17 1012.24 1012.33 1012.63 1013.12 1013.19 1013.15 1013.41 1013.62 1013.85 1014.00 1014.05 1014.02 1014.10 1014.31 1014.47 1014.52 1014.49 1014.45 1014.48 1014.62 1014.62 1014.65 1014.83 1014.95 1014.98 1014.86 1014.77 1014.67 1014.66 1014.67 1014.72 1014.76 1014.76
1008.93 1009.12 1010.23 1011.19 1012.01 1011.39 1009.90 1008.33 1008.13 1008.51 1008.62 1009.04 1010.39 1011.45 1011.94 1012.03 1012.43 1012.64 1012.79 1013.24 1013.31 1013.51 1013.68 1013.87 1014.04 1014.13 1014.21 1014.28 1014.47 1014.63 1014.75 1014.83 1014.82 1014.81 1014.75 1014.75 1014.79 1014.87 1015.03 1015.12 1015.12 1015.06 1014.96 1014.95 1014.92 1014.92 1014.90 1014.89 1014.87
1008.89 1009.82 1011.06 1011.23 1011.47 1010.19 1008.99 1007.86 1007.77 1008.26 1008.89 1009.33 1010.09 1011.74 1012.58 1012.39 1012.57 1012.71 1013.09 1013.49 1013.53 1013.91 1014.01 1014.21 1014.32 1014.46 1014.57 1014.70 1014.89 1015.01 1015.12 1015.18 1015.22 1015.19 1015.17 1015.14 1015.18 1015.27 1015.32 1015.37 1015.42 1015.32 1015.22 1015.17 1015.13 1015.10 1015.04 1014.92 1014.86
1009.29 1010.31 1011.43 1011.45 1010.65 1009.26 1008.26 1007.61 1007.63 1008.18 1008.86 1009.73 1010.34 1011.99 1012.54 1012.62 1012.67 1013.08 1013.41 1013.72 1013.77 1014.33 1014.36 1014.55 1014.78 1014.79 1014.96 1015.11 1015.30 1015.41 1015.48 1015.48 1015.50 1015.56 1015.58 1015.66 1015.68 1015.69 1015.72 1015.68 1015.71 1015.67 1015.67 1015.57 1015.52 1015.35 1015.29 1015.17 1015.02
1009.81 1010.70 1011.40 1011.27 1010.00 1008.30 1007.52 1006.96 1007.79 1008.46 1009.10 1009.81 1010.61 1011.57 1012.42 1012.60 1012.78 1013.14 1013.62 1014.08 1014.30 1014.57 1014.76 1014.87 1015.03 1015.15 1015.29 1015.47 1015.63 1015.78 1015.90 1015.90 1015.88 1016.01 1016.12 1016.08 1016.07 1016.10 1016.09 1016.04 1016.12 1016.10 1016.08 1015.99 1015.92 1015.82 1015.59 1015.40 1015.21
1009.74 1010.58 1010.65 1010.29 1009.43 1008.16 1006.95 1006.80 1008.06 1008.66 1009.19 1009.76 1010.44 1011.89 1012.77 1012.97 1013.14 1013.38 1013.90 1014.35 1014.66 1014.79 1015.18 1015.38 1015.46 1015.49 1015.68 1015.81 1016.02 1016.11 1016.19 1016.16 1016.19 1016.34 1016.51 1016.61 1016.64 1016.57 1016.56 1016.59 1016.60 1016.53 1016.53 1016.41 1016.32 1016.21 1016.03 1015.84 1015.63
1009.30 1010.00 1010.19 1009.62 1008.93 1007.67 1006.67 1006.51 1007.10 1008.58 1009.51 1009.84 1010.61 1011.11 1012.28 1012.40 1013.13 1013.65 1014.28 1014.79 1015.14 1015.29 1015.60 1015.67 1015.74 1015.83 1016.09 1016.24 1016.39 1016.46 1016.54 1016.69 1016.77 1016.92 1016.99 1017.05 1017.19 1017.21 1017.15 1017.09 1016.95 1016.82 1016.86 1016.77 1016.68 1016.55 1016.43 1016.32 1016.12
1008.91 1009.85 1009.97 1009.07 1008.23 1007.05 1006.48 1006.76 1007.38 1008.20 1009.13 1010.29 1010.55 1010.33 1010.42 1012.15 1012.92 1013.75 1014.55 1015.21 1015.66 1015.78 1015.86 1015.95 1016.10 1016.24 1016.41 1016.54 1016.80 1016.89 1016.99 1017.17 1017.28 1017.43 1017.43 1017.52 1017.69 1017.78 1017.74 1017.62 1017.41 1017.39 1017.33 1017.25 1017.08 1016.99 1016.90 1016.74 1016.52
1009.05 1009.33 1008.90 1007.99 1007.34 1006.72 1006.49 1006.64 1007.38 1008.32 1009.30 1010.48 1010.77 1010.91 1011.31 1012.42 1013.04 1013.58 1014.25 1015.06 1015.90 1016.16 1016.19 1016.26 1016.34 1016.59 1016.67 1016.97 1017.38 1017.57 1017.67 1017.77 1017.94 1017.98 1018.03 1018.08 1018.12 1018.17 1018.23 1018.16 1018.10 1017.95 1018.03 1017.87 1017.75 1017.55 1017.38 1017.23 1017.09
1008.87 1008.57 1008.03 1007.40 1006.82 1006.49 1006.38 1006.89 1007.26 1008.22 1009.37 1009.31 1009.85 1011.09 1011.72 1012.50 1013.40 1013.85 1014.45 1014.82 1015.58 1016.25 1016.40 1016.52 1016.60 1016.82 1017.03 1017.44 1017.72 1017.98 1018.18 1018.30 1018.37 1018.44 1018.54 1018.60 1018.61 1018.73 1018.73 1018.79 1018.78 1018.68 1018.61 1018.60 1018.41 1018.20 1018.04 1017.87 1017.62
1008.96 1008.08 1007.83 1007.35 1006.64 1006.68 1006.47 1006.63 1007.45 1007.86 1007.84 1007.88 1009.38 1010.06 1010.97 1012.33 1013.18 1013.75 1014.17 1014.92 1015.60 1016.42 1016.70 1016.68 1016.74 1017.11 1017.38 1017.52 1017.94 1018.25 1018.45 1018.64 1018.72 1018.88 1018.94 1018.92 1019.02 1019.20 1019.34 1019.31 1019.33 1019.29 1019.26 1019.14 1019.04 1018.87 1018.68 1018.35 1017.97
1008.75 1008.14 1007.71 1007.24 1006.72 1006.46 1006.44 1006.61 1007.22 1007.92 1008.17 1008.42 1009.81 1010.82 1011.41 1012.33 1013.18 1013.92 1014.33 1014.79 1015.37 1016.20 1016.73 1016.88 1016.97 1017.34 1017.62 1017.85 1018.37 1018.66 1018.96 1019.07 1019.09 1019.16 1019.19 1019.17 1019.32 1019.62 1019.62 1019.66 1019.69 1019.71 1019.65 1019.66 1019.57 1019.37 1019.18 1018.91 1018.52
1008.48 1008.17 1007.65 1007.07 1006.62 1006.50 1006.79 1007.32 1007.63 1008.23 1008.65 1009.37 1010.10 1010.83 1011.57 1012.16 1012.98 1013.70 1014.43 1014.67 1015.12 1015.91 1016.63 1016.96 1017.12 1017.37 1017.71 1018.14 1018.59 1019.06 1019.29 1019.36 1019.32 1019.38 1019.41 1019.39 1019.59 1019.88 1020.01 1020.10 1020.12 1020.17 1020.21 1020.22 1020.24 1020.10 1019.84 1019.52 1019.05
1008.61 1008.30 1007.54 1006.89 1006.39 1006.32 1006.75 1007.70 1007.91 1008.33 1009.09 1009.63 1010.36 1010.91 1011.62 1012.22 1012.90 1013.13 1013.84 1014.15 1014.50 1015.46 1016.13 1016.79 1017.10 1017.43 1017.82 1018.19 1018.63 1019.09 1019.32 1019.44 1019.42 1019.56 1019.67 1019.79 1019.99 1020.18 1020.26 1020.38 1020.52 1020.71 1020.72 1020.63 1020.49 1020.33 1020.17 1019.93 1019.46
1009.10 1008.76 1007.95 1006.62 1006.33 1006.15 1006.76 1007.60 1007.65 1008.33 1008.93 1009.62 1010.11 1010.66 1011.32 1011.83 1012.33 1013.17 1013.84 1014.34 1014.66 1015.34 1016.03 1016.69 1017.11 1017.65 1018.11 1018.39 1018.79 1019.14 1019.52 1019.56 1019.62 1019.78 1019.98 1020.17 1020.38 1020.47 1020.59 1020.74 1021.02 1021.16 1021.10 1020.90 1020.59 1020.55 1020.47 1020.38 1020.04
1009.75 1009.35 1008.51 1007.34 1006.36 1006.39 1006.81 1007.46 1007.36 1008.22 1008.60 1009.06 1009.54 1010.14 1010.87 1011.86 1012.59 1013.08 1013.64 1014.26 1014.68 1015.30 1015.84 1016.57 1017.06 1017.63 1018.15 1018.53 1018.95 1019.30 1019.65 1019.77 1019.82 1019.98 1020.26 1020.44 1020.61 1020.75 1020.90 1021.11 1021.29 1021.27 1021.21 1021.13 1021.10 1021.15 1021.08 1020.96 1020.48
1009.94 1009.62 1008.71 1007.90 1006.87 1006.87 1006.97 1007.33 1007.52 1007.86 1008.42 1008.59 1009.06 1009.80 1010.51 1011.19 1011.47 1012.43 1013.27 1013.97 1014.43 1014.98 1015.42 1015.87 1016.60 1017.24 1017.88 1018.48 1019.07 1019.65 1019.96 1020.12 1020.06 1020.24 1020.48 1020.68 1020.88 1021.03 1021.15 1021.31 1021.41 1021.52 1021.62 1021.69 1021.54 1021.45 1021.38 1021.40 1020.93
1009.87 1009.68 1009.13 1008.03 1007.00 1007.31 1007.17 1007.20 1006.99 1007.42 1008.20 1008.66 1009.26 1009.80 1010.13 1010.62 1011.39 1012.30 1013.11 1013.72 1014.34 1014.87 1015.37 1015.85 1016.39 1017.00 1017.72 1018.61 1019.22 1019.82 1020.23 1020.40 1020.49 1020.53 1020.63 1020.89 1021.12 1021.33 1021.46 1021.66 1021.80 1021.91 1021.94 1022.08 1021.95 1021.70 1021.71 1021.43 1021.01
1009.88 1009.63 1008.98 1007.94 1006.88 1007.37 1006.95 1006.75 1006.51 1006.88 1007.02 1007.07 1007.54 1008.39 1009.25 1010.36 1011.13 1012.04 1012.85 1013.54 1013.97 1014.57 1015.15 1015.66 1016.15 1016.78 1017.43 1018.11 1018.61 1019.11 1019.90 1020.39 1020.51 1020.73 1020.92 1021.15 1021.38 1021.51 1021.64 1021.83 1022.10 1022.23 1022.40 1022.40 1022.16 1021.98 1022.04 1022.10 1021.84
1009.30 1009.23 1008.75 1008.45 1007.44 1007.16 1006.82 1006.25 1005.96 1005.67 1005.78 1006.00 1006.75 1007.34 1008.84 1010.09 1010.82 1011.73 1012.37 1013.01 1013.73 1014.03 1014.71 1015.36 1015.95 1016.48 1017.02 1017.61 1018.32 1019.16 1019.80 1020.39 1020.89 1021.15 1021.35 1021.63 1021.80 1021.91 1021.85 1022.10 1022.35 1022.53 1022.58 1022.58 1022.46 1022.31 1022.36 1022.54 1022.44
1008.70 1008.33 1008.33 1008.24 1008.13 1007.53 1006.77 1005.60 1005.38 1005.16 1005.15 1005.57 1005.87 1006.76 1007.55 1008.45 1009.57 1010.58 1011.46 1012.23 1012.86 1013.55 1014.18 1014.85 1015.52 1016.17 1016.81 1017.40 1017.95 1018.71 1019.46 1020.36 1020.85 1021.02 1021.51 1021.91 1021.97 1021.98 1022.15 1022.44 1022.67 1022.76 1022.77 1022.76 1022.71 1022.75 1022.87 1022.87 1023.31
1008.13 1008.03 1008.27 1008.22 1008.14 1007.53 1006.69 1006.77 1004.38 1004.33 1004.67 1004.48 1004.60 1005.42 1006.22 1007.09 1008.23 1009.35 1010.08 1011.15 1012.49 1013.38 1014.06 1014.81 1015.48 1016.24 1016.85 1017.35 1017.83 1018.65 1019.47 1020.04 1020.58 1021.10 1021.66 1022.06 1022.11 1022.16 1022.47 1022.75 1022.83 1023.02 1023.06 1023.15 1023.26 1023.26 1023.33 1023.50 1023.78
1007.98 1008.15 1008.15 1008.25 1008.40 1007.36 1006.73 1006.60 1003.11 1003.54 1003.07 1003.06 1003.16 1003.87 1004.59 1005.56 1006.93 1008.75 1010.26 1011.26 1012.07 1012.97 1013.72 1014.43 1015.12 1015.98 1016.59 1017.15 1017.86 1018.48 1019.30 1020.06 1020.69 1021.40 1021.91 1022.24 1022.39 1022.63 1022.79 1022.88 1023.08 1023.25 1023.46 1023.57 1023.57 1023.68 1023.99 1024.22 1024.23
1008.03 1008.77 1009.23 1008.73 1008.59 1006.54 1005.95 1005.59 1002.04 1002.19 1001.82 1001.73 1001.80 1002.49 1003.38 1004.66 1006.09 1007.39 1008.84 1010.13 1011.35 1012.31 1013.39 1014.25 1014.93 1015.88 1016.55 1017.12 1017.67 1018.21 1018.96 1019.58 1020.29 1021.11 1021.66 1022.18 1022.54 1023.01 1023.19 1023.09 1023.37 1023.57 1023.56 1023.59 1023.75 1024.13 1024.56 1024.71 1024.63
1007.31 1008.02 1008.20 1008.40 1008.26 1007.47 1006.22 1003.56 1001.98 1001.20 1000.80 1000.97 1001.53 1001.67 1002.51 1004.03 1004.76 1006.06 1007.50 1008.98 1010.31 1011.39 1012.46 1013.46 1014.59 1015.54 1016.34 1016.98 1017.63 1018.22 1018.97 1019.59 1020.17 1020.67 1021.31 1021.88 1022.46 1022.99 1023.35 1023.59 1023.67 1023.83 1023.79 1023.93 1024.07 1024.50 1024.95 1025.05 1025.03
1007.30 1007.33 1007.50 1008.15 1008.25 1008.27 1005.76 1002.98 1001.99 1001.62 1001.45 1001.43 1001.38 1001.69 1002.04 1002.75 1003.75 1004.90 1006.58 1007.83 1009.17 1010.54 1011.62 1012.56 1013.69 1014.89 1015.91 1016.74 1017.42 1018.04 1018.71 1019.46 1020.03 1020.60 1021.08 1021.57 1022.28 1022.70 1023.28 1023.58 1023.88 1023.97 1023.94 1024.16 1024.41 1024.69 1024.78 1024.76 1024.91
1007.39 1007.29 1007.72 1008.44 1008.64 1008.09 1005.45 1004.60 1002.77 1002.47 1002.27 1001.85 1001.96 1001.83 1002.03 1002.64 1004.03 1005.21 1006.51 1007.61 1008.74 1010.03 1011.27 1012.40 1013.29 1014.27 1015.45 1016.46 1017.22 1017.84 1018.53 1019.34 1019.92 1020.56 1021.22 1021.56 1022.25 1022.65 1023.24 1023.53 1023.78 1023.91 1024.19 1024.26 1024.57 1024.79 1024.87 1024.98 1025.04
1008.42 1008.23 1008.61 1009.08 1009.30 1008.65 1006.79 1004.79 1003.80 1003.43 1003.37 1003.12 1002.64 1002.45 1002.87 1003.17 1004.18 1005.43 1006.76 1007.97 1008.86 1009.95 1010.95 1012.03 1013.06 1014.03 1015.16 1016.12 1017.00 1017.75 1018.49 1019.22 1019.80 1020.39 1021.09 1021.40 1022.09 1022.48 1022.98 1023.28 1023.75 1024.00 1024.18 1024.54 1024.79 1024.94 1025.26 1025.07 1025.03
1010.23 1010.86 1011.10 1011.09 1010.98 1010.13 1008.77 1004.71 1004.56 1004.53 1004.51 1004.06 1003.72 1003.54 1003.85 1004.25 1004.93 1005.86 1007.01 1008.09 1009.11 1009.81 1010.78 1011.63 1012.69 1013.52 1014.45 1015.54 1016.54 1017.41 1018.25 1019.01 1019.61 1020.10 1020.68 1021.31 1021.76 1022.29 1022.75 1023.11 1023.60 1023.98 1024.47 1024.72 1024.76 1025.23 1025.27 1025.04 1025.14
Thickness
5775 5776 5776 5767 5732 5715 5713 5729 5754 5756 5757 5763 5762 5753 5741 5737 5738 5723 5748 5746 5742 5740 5738 5736 5734 5731 5729 5727 5725 5723 5720 5717 5717 5715 5714 5713 5711 5712 5711 5709 5707 5707 5707 5707 5705 5703 5702 5701 5700
5774 5772 5764 5742 5709 5701 5711 5737 5748 5760 5759 5765 5755 5749 5741 5733 5744 5744 5742 5741 5738 5738 5735 5733 5730 5727 5725 5723 5720 5717 5714 5713 5713 5712 5712 5709 5709 5709 5706 5704 5703 5703 5703 5702 5701 5699 5698 5697 5696
5772 5769 5746 5721 5695 5703 5717 5752 5752 5754 5762 5759 5742 5741 5738 5737 5741 5740 5742 5739 5735 5733 5731 5729 5725 5722 5720 5718 5715 5712 5710 5709 5708 5708 5707 5707 5705 5704 5701 5699 5698 5698 5698 5696 5695 5695 5694 5692 5691
5764 5753 5737 5714 5710 5721 5739 5755 5759 5755 5754 5755 5750 5731 5733 5740 5738 5740 5739 5735 5733 5728 5726 5723 5720 5717 5715 5712 5709 5708 5706 5704 5703 5702 5701 5700 5699 5698 5696 5695 5694 5694 5693 5692 5691 5690 5690 5690 5689
5754 5738 5709 5707 5714 5730 5742 5757 5760 5751 5753 5747 5747 5727 5728 5735 5737 5736 5733 5730 5727 5722 5720 5716 5713 5712 5708 5706 5704 5702 5701 5699 5698 5696 5696 5694 5693 5692 5691 5691 5689 5688 5687 5686 5686 5687 5685 5685 5685
5733 5728 5703 5696 5713 5737 5746 5759 5755 5750 5748 5745 5738 5735 5730 5734 5732 5730 5727 5722 5718 5716 5713 5711 5708 5705 5702 5700 5699 5697 5695 5694 5693 5692 5690 5689 5689 5688 5686 5685 5683 5682 5682 5681 5681 5680 5681 5681 5680
5726 5713 5708 5711 5711 5728 5748 5755 5742 5740 5739 5739 5743 5721 5725 5725 5726 5725 5721 5716 5712 5710 5707 5705 5702 5700 5697 5695 5693 5692 5690 5689 5689 5688 5686 5684 5683 5682 5681 5679 5678 5677 5676 5676 5675 5674 5674 5674 5674
5728 5717 5712 5714 5708 5718 5748 5755 5750 5739 5731 5743 5739 5724 5719 5728 5724 5720 5714 5709 5706 5704 5701 5700 5698 5695 5691 5689 5686 5685 5685 5682 5681 5680 5679 5678 5676 5674 5673 5672 5672 5672 5670 5669 5668 5669 5668 5667 5667
5735 5706 5695 5713 5715 5729 5746 5745 5748 5746 5740 5731 5733 5738 5741 5728 5723 5715 5708 5701 5698 5697 5696 5694 5692 5689 5685 5683 5680 5679 5677 5675 5675 5673 5673 5672 5670 5667 5665 5663 5664 5663 5662 5662 5661 5661 5660 5660 5660
5717 5700 5708 5725 5728 5733 5743 5745 5741 5735 5731 5723 5724 5730 5728 5720 5716 5711 5707 5698 5691 5690 5689 5688 5686 5683 5680 5677 5674 5672 5670 5669 5667 5666 5665 5664 5663 5660 5659 5657 5657 5656 5654 5653 5652 5652 5651 5651 5650
5715 5709 5725 5730 5731 5736 5742 5734 5740 5727 5719 5731 5726 5719 5720 5716 5708 5704 5699 5696 5689 5684 5683 5681 5680 5677 5675 5670 5668 5665 5662 5661 5659 5657 5656 5655 5655 5652 5651 5650 5649 5648 5646 5644 5643 5642 5641 5640 5639
5700 5721 5724 5728 5733 5730 5733 5737 5730 5729 5739 5744 5732 5727 5723 5713 5705 5700 5697 5690 5684 5677 5675 5675 5673 5670 5667 5665 5662 5659 5656 5654 5653 5650 5649 5649 5647 5644 5641 5639 5638 5636 5634 5632 5630 5629 5627 5627 5627
5696 5711 5717 5723 5726 5728 5732 5730 5728 5725 5731 5734 5724 5718 5714 5707 5699 5693 5690 5687 5680 5673 5669 5667 5667 5663 5660 5658 5653 5650 5647 5645 5644 5643 5642 5641 5639 5635 5632 5630 5627 5624 5622 5619 5617 5616 5615 5614 5613
5699 5704 5708 5717 5722 5724 5717 5712 5714 5718 5722 5718 5714 5710 5707 5702 5696 5688 5682 5681 5677 5670 5663 5660 5659 5656 5653 5650 5646 5641 5638 5637 5636 5635 5633 5632 5629 5625 5621 5618 5615 5612 5609 5607 5604 5602 5600 5599 5599
5696 5688 5701 5712 5720 5718 5712 5696 5702 5705 5708 5706 5705 5702 5700 5696 5691 5688 5681 5679 5676 5667 5661 5655 5653 5650 5646 5643 5639 5635 5632 5630 5629 5627 5623 5621 5618 5615 5612 5609 5604 5600 5597 5594 5592 5590 5588 5586 5585
5677 5679 5676 5708 5712 5715 5702 5673 5702 5696 5697 5694 5696 5692 5692 5691 5688 5682 5675 5670 5666 5660 5654 5650 5647 5641 5637 5635 5631 5628 5624 5623 5621 5617 5613 5610 5606 5604 5601 5597 5592 5587 5584 5582 5582 5579 5575 5571 5569
5660 5651 5662 5679 5702 5701 5691 5670 5696 5687 5691 5688 5689 5688 5687 5681 5677 5674 5669 5663 5659 5654 5649 5643 5639 5634 5630 5626 5623 5619 5616 5614 5611 5608 5603 5599 5596 5593 5590 5585 5580 5576 5573 5570 5567 5563 5560 5556 5555
5642 5641 5653 5660 5684 5682 5672 5666 5681 5681 5682 5684 5684 5680 5680 5677 5678 5671 5664 5659 5653 5648 5644 5641 5635 5629 5625 5620 5614 5609 5605 5602 5601 5597 5593 5589 5585 5581 5577 5573 5568 5564 5559 5555 5552 5549 5547 5542 5540
5646 5642 5640 5659 5679 5666 5662 5662 5678 5675 5671 5673 5670 5670 5673 5674 5670 5663 5659 5652 5646 5641 5637 5634 5630 5624 5618 5611 5605 5599 5594 5591 5588 5586 5582 5577 5572 5567 5563 5558 5554 5550 5545 5539 5536 5534 5530 5528 5528
5635 5632 5638 5656 5673 5651 5656 5656 5670 5666 5670 5678 5679 5674 5671 5666 5662 5657 5652 5645 5642 5636 5632 5627 5623 5617 5612 5606 5601 5596 5588 5582 5579 5575 5570 5564 5560 5555 5551 5547 5540 5534 5528 5523 5521 5519 5515 5510 5509
5634 5629 5635 5635 5656 5654 5654 5651 5664 5674 5674 5679 5676 5678 5667 5658 5656 5652 5647 5643 5638 5634 5626 5620 5615 5611 5606 5600 5594 5586 5579 5573 5568 5562 5557 5550 5545 5540 5537 5531 5525 5519 5514 5509 5506 5503 5500 5493 5488
5622 5642 5636 5634 5633 5628 5650 5633 5660 5670 5666 5668 5675 5672 5670 5667 5662 5654 5648 5641 5635 5628 5620 5616 5610 5604 5598 5593 5588 5581 5572 5564 5557 5552 5545 5537 5531 5527 5521 5515 5509 5504 5500 5495 5491 5486 5482 5477 5467
5624 5639 5631 5632 5624 5627 5644 5614 5650 5669 5659 5669 5678 5675 5673 5670 5663 5655 5650 5642 5630 5620 5615 5608 5601 5594 5588 5583 5579 5570 5561 5554 5548 5541 5533 5524 5519 5514 5506 5499 5495 5489 5485 5479 5473 5468 5463 5458 5449
5629 5623 5625 5621 5613 5611 5636 5622 5653 5663 5674 5675 5682 5679 5676 5671 5664 5650 5638 5632 5626 5616 5609 5602 5595 5586 5580 5575 5567 5560 5552 5542 5535 5527 5520 5513 5505 5497 5490 5485 5479 5473 5467 5462 5457 5450 5443 5436 5430
5612 5596 5576 5582 5583 5609 5634 5629 5663 5666 5680 5686 5685 5681 5677 5668 5658 5650 5640 5633 5621 5612 5602 5594 5587 5576 5569 5564 5557 5550 5542 5533 5526 5518 5510 5500 5491 5481 5475 5471 5464 5457 5452 5448 5441 5433 5424 5418 5414
5604 5598 5580 5573 5582 5600 5618 5619 5648 5670 5678 5683 5678 5680 5678 5664 5662 5653 5642 5630 5618 5609 5600 5592 5580 5568 5560 5553 5545 5538 5529 5520 5514 5507 5497 5488 5478 5469 5461 5453 5447 5441 5436 5430 5425 5417 5408 5402 5396
5593 5587 5604 5581 5586 5573 5607 5638 5652 5660 5662 5664 5668 5669 5667 5665 5660 5653 5638 5629 5616 5605 5595 5586 5572 5561 5550 5541 5534 5526 5518 5509 5502 5493 5485 5477 5466 5458 5448 5440 5433 5427 5421 5415 5408 5402 5396 5392 5385
5585 5595 5578 5573 5557 5563 5588 5596 5619 5633 5639 5648 5651 5654 5654 5654 5645 5638 5627 5619 5609 5598 5587 5574 5563 5552 5541 5531 5522 5515 5507 5497 5489 5480 5470 5463 5453 5445 5435 5428 5421 5414 5407 5401 5393 5388 5383 5377 5370
5565 5564 5563 5567 5562 5551 5564 5584 5615 5618 5617 5621 5635 5637 5633 5633 5629 5619 5610 5602 5596 5586 5577 5564 5551 5542 5530 5519 5511 5504 5494 5485 5477 5468 5458 5452 5442 5434 5425 5418 5410 5401 5394 5384 5379 5374 5367 5362 5355
5541 5533 5528 5522 5535 5530 5533 5589 5598 5590 5591 5600 5605 5612 5613 5611 5608 5605 5597 5589 5581 5575 5565 5554 5543 5535 5523 5511 5501 5492 5482 5474 5466 5458 5450 5441 5432 5423 5414 5407 5399 5389 5379 5371 5367 5360 5354 5348 5340